ENT79K EKCH-EPKT

Flight info

Callsign ENT79K
Flight time 1h 1m
Altitude 35000
Route SIMEG DCT TELMO DCT GOSOT L996 DENKO L619 ADVAB L623 UWLER
Aircraft B738/M-SDE2E3FGHIRWXY/LB1

Departure

Time 2026-04-26 16:19
Airport Copenhagen Kastrup Airport (EKCH)

Arrival

Time 2026-04-26 17:20
Airport Katowice Wojciech Korfanty International Airport (EPKT)
Time Latitude Longitude Altitude Speed Heading
2026-04-26 15:40 55.62704 12.64168 23 ft 0 kts 33°
2026-04-26 16:08 55.62695 12.64158 23 ft 4 kts 33°
2026-04-26 16:08 55.62673 12.64132 27 ft 3 kts 33°
2026-04-26 16:08 55.62656 12.64109 25 ft 4 kts 59°
2026-04-26 16:08 55.62652 12.64069 27 ft 4 kts 112°
2026-04-26 16:09 55.62664 12.64030 27 ft 4 kts 123°
2026-04-26 16:09 55.62678 12.63991 23 ft 3 kts 123°
2026-04-26 16:09 55.62679 12.63990 23 ft 0 kts 123°
2026-04-26 16:11 55.62677 12.63995 23 ft 2 kts 123°
2026-04-26 16:12 55.62664 12.64030 24 ft 5 kts 123°
2026-04-26 16:12 55.62633 12.64112 23 ft 11 kts 123°
2026-04-26 16:12 55.62515 12.64432 23 ft 18 kts 123°
2026-04-26 16:13 55.62449 12.64612 23 ft 17 kts 123°
2026-04-26 16:13 55.62388 12.64766 23 ft 13 kts 136°
2026-04-26 16:13 55.62311 12.64784 23 ft 9 kts 176°
2026-04-26 16:13 55.62246 12.64793 23 ft 9 kts 189°
2026-04-26 16:14 55.62189 12.64744 25 ft 9 kts 211°
2026-04-26 16:14 55.62133 12.64681 24 ft 12 kts 213°
2026-04-26 16:14 55.61923 12.64503 23 ft 17 kts 179°
2026-04-26 16:15 55.61807 12.64540 23 ft 17 kts 169°
2026-04-26 16:15 55.61695 12.64562 23 ft 16 kts 187°
2026-04-26 16:15 55.61597 12.64474 24 ft 16 kts 213°
2026-04-26 16:16 55.61371 12.64214 23 ft 22 kts 212°
2026-04-26 16:16 55.61233 12.64056 25 ft 24 kts 213°
2026-04-26 16:16 55.61099 12.63901 23 ft 23 kts 213°
2026-04-26 16:16 55.60971 12.63754 23 ft 22 kts 213°
2026-04-26 16:17 55.60873 12.63643 25 ft 14 kts 212°
2026-04-26 16:17 55.60793 12.63602 24 ft 11 kts 156°
2026-04-26 16:17 55.60747 12.63684 23 ft 9 kts 129°
2026-04-26 16:17 55.60709 12.63772 27 ft 9 kts 127°
2026-04-26 16:18 55.60696 12.63880 24 ft 10 kts 72°
2026-04-26 16:18 55.61342 12.64892 26 ft 125 kts 41°
2026-04-26 16:19 55.62916 12.67539 708 ft 168 kts 41°
2026-04-26 16:19 55.63791 12.68896 1386 ft 167 kts 37°
2026-04-26 16:19 55.65299 12.71103 2596 ft 169 kts 35°
2026-04-26 16:20 55.66540 12.72910 3441 ft 181 kts 34°
2026-04-26 16:20 55.68762 12.76177 3922 ft 233 kts 36°
2026-04-26 16:20 55.70062 12.78131 4125 ft 258 kts 40°
2026-04-26 16:21 55.71032 12.80903 4740 ft 275 kts 74°
2026-04-26 16:21 55.70988 12.84317 5518 ft 283 kts 109°
2026-04-26 16:21 55.69884 12.87169 6307 ft 284 kts 142°
2026-04-26 16:21 55.68333 12.89363 7082 ft 288 kts 142°
2026-04-26 16:22 55.66754 12.91617 7762 ft 295 kts 142°
2026-04-26 16:22 55.65135 12.93920 8456 ft 300 kts 142°
2026-04-26 16:22 55.63491 12.96252 9183 ft 306 kts 141°
2026-04-26 16:22 55.61835 12.98596 9867 ft 312 kts 141°
2026-04-26 16:23 55.60126 13.01014 10527 ft 317 kts 141°
2026-04-26 16:23 55.58344 13.03531 10761 ft 340 kts 141°
2026-04-26 16:23 55.56490 13.06341 10931 ft 361 kts 131°
2026-04-26 16:23 55.54910 13.09901 11324 ft 373 kts 124°
2026-04-26 16:24 55.53406 13.13670 11919 ft 379 kts 123°
2026-04-26 16:24 55.51891 13.17517 12592 ft 384 kts 123°
2026-04-26 16:24 55.50350 13.21405 13248 ft 390 kts 124°
2026-04-26 16:24 55.48770 13.25342 13909 ft 396 kts 124°
2026-04-26 16:25 55.47154 13.29322 14535 ft 401 kts 125°
2026-04-26 16:25 55.45515 13.33325 15211 ft 405 kts 125°
2026-04-26 16:25 55.43854 13.37359 15913 ft 408 kts 125°
2026-04-26 16:25 55.42191 13.41379 16587 ft 412 kts 126°
2026-04-26 16:26 55.40489 13.45480 17230 ft 418 kts 125°
2026-04-26 16:26 55.39324 13.48285 17638 ft 422 kts 125°
2026-04-26 16:26 55.36996 13.53878 18477 ft 428 kts 125°
2026-04-26 16:26 55.35224 13.58127 19046 ft 433 kts 126°
2026-04-26 16:27 55.33459 13.62351 19623 ft 436 kts 126°
2026-04-26 16:27 55.31658 13.66657 20211 ft 439 kts 126°
2026-04-26 16:27 55.29839 13.70996 20782 ft 442 kts 126°
2026-04-26 16:27 55.28008 13.75356 21329 ft 446 kts 126°
2026-04-26 16:28 55.26157 13.79757 21875 ft 449 kts 126°
2026-04-26 16:28 55.24293 13.84179 22412 ft 453 kts 126°
2026-04-26 16:28 55.22415 13.88629 22948 ft 456 kts 126°
2026-04-26 16:28 55.20515 13.93122 23386 ft 463 kts 126°
2026-04-26 16:29 55.18578 13.97694 23792 ft 469 kts 126°
2026-04-26 16:29 55.16622 14.02303 24244 ft 471 kts 126°
2026-04-26 16:29 55.14687 14.06851 24725 ft 472 kts 126°
2026-04-26 16:29 55.12721 14.11466 25174 ft 475 kts 126°
2026-04-26 16:30 55.10738 14.16111 25578 ft 478 kts 126°
2026-04-26 16:30 55.09413 14.19210 25839 ft 480 kts 126°
2026-04-26 16:30 55.07404 14.23902 26238 ft 483 kts 127°
2026-04-26 16:30 55.05385 14.28608 26638 ft 485 kts 127°
2026-04-26 16:31 55.03356 14.33329 27036 ft 488 kts 127°
2026-04-26 16:31 55.01299 14.38106 27373 ft 492 kts 127°
2026-04-26 16:31 54.99261 14.42831 27611 ft 498 kts 127°
2026-04-26 16:31 54.97169 14.47670 27981 ft 500 kts 127°
2026-04-26 16:32 54.95071 14.52514 28398 ft 501 kts 127°
2026-04-26 16:32 54.93646 14.55798 28670 ft 502 kts 127°
2026-04-26 16:32 54.90839 14.62257 29131 ft 506 kts 127°
2026-04-26 16:32 54.88705 14.67157 29438 ft 508 kts 127°
2026-04-26 16:33 54.86566 14.72060 29814 ft 510 kts 127°
2026-04-26 16:33 54.84417 14.76972 30150 ft 512 kts 128°
2026-04-26 16:33 54.82032 14.81565 30406 ft 513 kts 141°
2026-04-26 16:33 54.79164 14.85104 30593 ft 512 kts 154°
2026-04-26 16:34 54.75937 14.87608 30912 ft 506 kts 166°
2026-04-26 16:34 54.72536 14.89002 31356 ft 497 kts 174°
2026-04-26 16:34 54.69147 14.90132 31786 ft 495 kts 174°
2026-04-26 16:34 54.65764 14.91270 32113 ft 495 kts 174°
2026-04-26 16:35 54.62377 14.92447 32430 ft 496 kts 173°
2026-04-26 16:35 54.58982 14.93665 32752 ft 496 kts 173°
2026-04-26 16:35 54.55651 14.94883 33206 ft 492 kts 173°
2026-04-26 16:35 54.52282 14.96119 33272 ft 497 kts 173°
2026-04-26 16:36 54.45498 14.98599 33277 ft 496 kts 173°
2026-04-26 16:36 54.38842 15.01019 33289 ft 490 kts 173°
2026-04-26 16:37 54.32140 15.03449 33270 ft 491 kts 173°
2026-04-26 16:37 54.26604 15.05454 33308 ft 491 kts 173°
2026-04-26 16:38 54.18787 15.08257 33299 ft 492 kts 174°
2026-04-26 16:38 54.12068 15.10648 33297 ft 493 kts 174°
2026-04-26 16:39 54.05346 15.13037 33302 ft 493 kts 174°
2026-04-26 16:39 53.98670 15.15404 33296 ft 493 kts 174°
2026-04-26 16:40 53.91947 15.17779 33300 ft 492 kts 174°
2026-04-26 16:40 53.85209 15.20151 33680 ft 494 kts 174°
2026-04-26 16:41 53.81845 15.21334 33935 ft 495 kts 174°
2026-04-26 16:41 53.78456 15.22522 33740 ft 497 kts 174°
2026-04-26 16:41 53.75094 15.23702 33530 ft 490 kts 174°
2026-04-26 16:41 53.71770 15.24865 33367 ft 487 kts 174°
2026-04-26 16:42 53.65093 15.27171 33310 ft 492 kts 174°
2026-04-26 16:42 53.58366 15.29513 33289 ft 494 kts 174°
2026-04-26 16:43 53.51696 15.31854 33290 ft 491 kts 174°
2026-04-26 16:43 53.45106 15.34909 33286 ft 496 kts 160°
2026-04-26 16:44 53.38873 15.39962 33292 ft 497 kts 158°
2026-04-26 16:44 53.32640 15.44782 33296 ft 495 kts 160°
2026-04-26 16:45 53.26349 15.49547 33294 ft 496 kts 160°
2026-04-26 16:45 53.20065 15.54335 33301 ft 497 kts 160°
2026-04-26 16:46 53.13767 15.59127 33292 ft 497 kts 160°
2026-04-26 16:46 53.07500 15.63878 33298 ft 498 kts 160°
2026-04-26 16:47 53.01191 15.68640 33289 ft 498 kts 160°
2026-04-26 16:47 52.95931 15.72591 33288 ft 498 kts 160°
2026-04-26 16:48 52.89601 15.77336 33279 ft 498 kts 160°
2026-04-26 16:48 52.83280 15.82087 33290 ft 499 kts 158°
2026-04-26 16:49 52.77511 15.88456 33295 ft 505 kts 143°
2026-04-26 16:49 52.72088 15.95865 33278 ft 506 kts 143°
2026-04-26 16:50 52.66632 16.03200 33284 ft 506 kts 144°
2026-04-26 16:50 52.61135 16.10440 33277 ft 505 kts 144°
2026-04-26 16:51 52.55633 16.17655 33297 ft 505 kts 144°
2026-04-26 16:51 52.50129 16.24852 33281 ft 506 kts 144°
2026-04-26 16:52 52.45541 16.30827 33280 ft 506 kts 144°
2026-04-26 16:52 52.39118 16.39170 33271 ft 507 kts 144°
2026-04-26 16:53 52.33580 16.46342 33269 ft 507 kts 144°
2026-04-26 16:53 52.28024 16.53514 33292 ft 508 kts 144°
2026-04-26 16:54 52.22467 16.60662 33271 ft 509 kts 144°
2026-04-26 16:54 52.16948 16.67745 33251 ft 501 kts 144°
2026-04-26 16:55 52.11604 16.74876 33255 ft 500 kts 138°
2026-04-26 16:55 52.06774 16.83023 33266 ft 501 kts 135°
2026-04-26 16:56 51.99611 16.95378 33261 ft 500 kts 136°
2026-04-26 16:57 51.94767 17.03514 33267 ft 501 kts 136°
2026-04-26 16:57 51.87463 17.15687 33260 ft 502 kts 136°
2026-04-26 16:58 51.83405 17.22435 33259 ft 503 kts 136°
2026-04-26 16:59 51.75315 17.36009 33264 ft 505 kts 136°
2026-04-26 16:59 51.70418 17.44174 32884 ft 507 kts 136°
2026-04-26 17:00 51.65473 17.52268 31744 ft 502 kts 136°
2026-04-26 17:00 51.60585 17.60230 30775 ft 496 kts 136°
2026-04-26 17:00 51.58200 17.64111 30335 ft 493 kts 136°
2026-04-26 17:01 51.55798 17.68020 29780 ft 490 kts 136°
2026-04-26 17:01 51.53409 17.71901 29267 ft 486 kts 136°
2026-04-26 17:01 51.51040 17.75747 28794 ft 482 kts 136°
2026-04-26 17:01 51.48692 17.79552 28310 ft 478 kts 135°
2026-04-26 17:02 51.46356 17.83333 27843 ft 475 kts 135°
2026-04-26 17:02 51.44032 17.87088 27367 ft 472 kts 135°
2026-04-26 17:02 51.41723 17.90811 26904 ft 469 kts 135°
2026-04-26 17:02 51.39426 17.94511 26428 ft 466 kts 135°
2026-04-26 17:03 51.37143 17.98182 25960 ft 463 kts 135°
2026-04-26 17:03 51.34869 18.01833 25509 ft 461 kts 135°
2026-04-26 17:03 51.32638 18.05411 24926 ft 462 kts 135°
2026-04-26 17:03 51.30349 18.09074 24165 ft 468 kts 135°
2026-04-26 17:04 51.28037 18.12771 23462 ft 471 kts 135°
2026-04-26 17:04 51.25721 18.16466 22928 ft 466 kts 135°
2026-04-26 17:04 51.23459 18.20071 22329 ft 456 kts 134°
2026-04-26 17:04 51.21211 18.23649 21691 ft 457 kts 134°
2026-04-26 17:05 51.18965 18.27219 21193 ft 453 kts 134°
2026-04-26 17:05 51.16737 18.30754 20718 ft 450 kts 134°
2026-04-26 17:05 51.14522 18.34265 20280 ft 447 kts 134°
2026-04-26 17:05 51.12352 18.37699 19813 ft 444 kts 133°
2026-04-26 17:06 51.10163 18.41158 19356 ft 442 kts 133°
2026-04-26 17:06 51.07991 18.44586 18907 ft 439 kts 133°
2026-04-26 17:06 51.05816 18.48016 18418 ft 437 kts 133°
2026-04-26 17:06 51.03671 18.51429 17954 ft 432 kts 131°
2026-04-26 17:07 51.01683 18.54924 17742 ft 421 kts 128°
2026-04-26 17:07 50.99798 18.58443 17350 ft 416 kts 127°
2026-04-26 17:07 50.97969 18.61928 16864 ft 415 kts 127°
2026-04-26 17:07 50.96136 18.65418 16353 ft 408 kts 127°
2026-04-26 17:08 50.94302 18.68881 15361 ft 412 kts 127°
2026-04-26 17:08 50.92438 18.72374 14371 ft 416 kts 128°
2026-04-26 17:08 50.90556 18.75874 13328 ft 418 kts 128°
2026-04-26 17:08 50.88675 18.79350 12510 ft 411 kts 128°
2026-04-26 17:09 50.86829 18.82749 11794 ft 402 kts 128°
2026-04-26 17:09 50.85624 18.84966 11312 ft 396 kts 128°
2026-04-26 17:09 50.83279 18.89271 10605 ft 380 kts 128°
2026-04-26 17:09 50.81594 18.92358 10431 ft 359 kts 128°
2026-04-26 17:10 50.80008 18.95262 10277 ft 340 kts 128°
2026-04-26 17:10 50.78505 18.98011 10229 ft 320 kts 128°
2026-04-26 17:10 50.77089 19.00601 10222 ft 306 kts 128°
2026-04-26 17:10 50.75725 19.03095 10224 ft 293 kts 128°
2026-04-26 17:11 50.74418 19.05483 10188 ft 282 kts 127°
2026-04-26 17:11 50.73152 19.07795 9907 ft 275 kts 127°
2026-04-26 17:11 50.71899 19.10086 9409 ft 278 kts 127°
2026-04-26 17:11 50.70602 19.12459 8625 ft 291 kts 128°
2026-04-26 17:12 50.67960 19.17270 7766 ft 286 kts 129°
2026-04-26 17:12 50.66661 19.19628 7381 ft 282 kts 129°
2026-04-26 17:13 50.64100 19.24274 6467 ft 281 kts 130°
2026-04-26 17:13 50.62827 19.26580 6051 ft 278 kts 129°
2026-04-26 17:13 50.60313 19.31131 5376 ft 274 kts 130°
2026-04-26 17:14 50.59079 19.33359 5233 ft 266 kts 130°
2026-04-26 17:14 50.56625 19.37491 4975 ft 254 kts 147°
2026-04-26 17:14 50.54982 19.38327 4816 ft 247 kts 176°
2026-04-26 17:15 50.51586 19.38351 4402 ft 241 kts 183°
2026-04-26 17:15 50.49918 19.38303 4219 ft 238 kts 184°
2026-04-26 17:15 50.48382 19.37674 3994 ft 223 kts 220°
2026-04-26 17:16 50.47544 19.35833 3790 ft 200 kts 264°
2026-04-26 17:16 50.47589 19.33761 3660 ft 188 kts 279°
2026-04-26 17:16 50.47566 19.31724 3478 ft 189 kts 271°
2026-04-26 17:16 50.47547 19.29694 3306 ft 182 kts 276°
2026-04-26 17:17 50.47569 19.27744 3124 ft 173 kts 276°
2026-04-26 17:17 50.47577 19.25891 3015 ft 168 kts 275°
2026-04-26 17:17 50.47579 19.24057 2844 ft 167 kts 275°
2026-04-26 17:17 50.47579 19.22284 2637 ft 158 kts 276°
2026-04-26 17:18 50.47581 19.20578 2404 ft 155 kts 275°
2026-04-26 17:18 50.47583 19.18890 2199 ft 154 kts 276°
2026-04-26 17:18 50.47584 19.17256 1979 ft 146 kts 276°
2026-04-26 17:18 50.47587 19.15711 1776 ft 144 kts 276°
2026-04-26 17:19 50.47592 19.12495 1355 ft 147 kts 275°
2026-04-26 17:19 50.47588 19.10889 1142 ft 146 kts 274°
2026-04-26 17:19 50.47594 19.09351 1000 ft 133 kts 276°
2026-04-26 17:20 50.47604 19.08124 996 ft 91 kts 270°
2026-04-26 17:20 50.47604 19.07821 997 ft 82 kts 270°
2026-04-26 17:20 50.47512 19.06920 1000 ft 27 kts 240°
2026-04-26 17:20 50.47478 19.06825 1001 ft 0 kts 240°
2026-04-26 17:21 50.47477 19.06824 1001 ft 0 kts 236°
2026-04-26 17:21 50.47458 19.06817 1001 ft 5 kts 169°
2026-04-26 17:22 50.47433 19.06860 997 ft 6 kts 114°
2026-04-26 17:22 50.47427 19.06939 997 ft 10 kts 91°
2026-04-26 17:22 50.47427 19.07077 998 ft 15 kts 89°
2026-04-26 17:22 50.47427 19.07241 998 ft 15 kts 90°
2026-04-26 17:23 50.47426 19.07383 998 ft 10 kts 93°
2026-04-26 17:23 50.47377 19.07443 1001 ft 10 kts 181°
2026-04-26 17:23 50.47308 19.07442 1002 ft 10 kts 181°
2026-04-26 17:23 50.47253 19.07450 999 ft 7 kts 152°
2026-04-26 17:24 50.47221 19.07482 997 ft 5 kts 171°
2026-04-26 17:24 50.47190 19.07482 999 ft 3 kts 180°
2026-04-26 17:24 50.47182 19.07482 1000 ft 0 kts 180°